GFSFLT1_250_rhum_000.txt.gz
RH
48 49 48 38 33 45 52 51 44 42 42 45 55 66 80 82 82 74 62 62 58 54 53 48 44 45 49 46 46 44 46 44
40 39 37 41 32 25 30 35 34 29 29 35 39 44 49 50 49 54 55 52 50 49 61 51 47 50 50 49 47 51 50 52
33 27 32 37 34 30 30 28 27 30 35 40 48 46 48 51 57 66 68 69 68 69 71 84 85 70 68 61 54 46 41 40
27 24 23 23 25 28 25 27 30 48 71 88 97 100 96 91 97 100 100 100 97 86 78 76 70 59 61 62 54 52 50 51
27 22 21 25 27 28 52 64 78 91 97 94 87 76 74 77 74 69 64 60 60 63 57 50 49 45 42 41 39 40 44 41
35 31 29 30 32 52 72 76 72 80 72 65 66 65 58 48 44 42 44 44 42 45 38 34 37 37 38 41 43 42 40 46
31 36 40 46 51 51 68 70 69 66 67 64 63 51 41 43 42 40 39 38 39 38 39 43 45 46 47 45 44 46 39 38
39 43 44 48 54 64 66 66 65 61 52 50 47 43 42 41 40 43 46 45 44 47 51 58 59 58 53 52 47 31 25 26
59 61 62 59 59 57 57 55 49 45 45 46 45 48 52 53 54 56 49 52 56 49 48 57 55 52 57 42 28 23 19 17
50 50 56 60 60 56 52 46 43 42 47 44 52 67 69 63 63 64 67 65 62 54 54 46 43 40 36 28 23 19 17 17
70 68 64 59 54 47 40 39 44 52 65 71 68 80 68 76 73 68 57 50 50 45 38 34 29 24 23 22 21 17 17 16
54 53 46 40 39 41 48 52 56 67 86 85 74 74 76 66 61 61 52 44 40 32 28 24 22 20 19 19 18 17 16 16
37 36 38 41 51 63 66 80 96 88 94 88 72 83 73 66 58 57 48 44 31 24 20 18 17 15 14 14 14 14 15 15
44 46 56 78 94 94 96 100 95 93 91 78 72 87 66 59 59 58 38 24 19 18 16 14 13 12 11 11 11 12 12 12
56 75 83 81 83 94 99 97 100 99 88 77 72 73 69 58 42 27 19 16 15 13 11 11 10 10 10 10 10 10 11 11
85 76 74 82 94 100 100 96 85 79 83 82 64 56 47 30 21 15 13 12 10 9 9 9 9 9 10 10 10 10 10 10
62 81 85 97 99 93 91 90 82 76 65 58 47 47 28 16 13 11 9 8 7 7 7 8 8 8 9 9 10 10 10 9
99 100 94 91 87 83 75 74 70 67 60 48 33 21 15 13 10 8 7 7 7 8 8 8 8 8 9 9 9 10 9 9
100 100 100 98 83 79 89 74 67 62 47 29 19 15 11 9 8 7 7 8 8 8 8 8 9 8 8 8 8 7 6 5

GFSFLT1_250_rhum_003.txt.gz
RH
28 25 26 26 30 28 25 25 24 27 30 29 38 56 50 46 48 47 50 50 52 50 51 51 51 54 56 58 58 49 45 41
21 21 22 24 25 24 22 21 22 27 26 34 45 45 43 46 54 56 58 57 53 57 62 77 90 91 79 79 71 66 67 64
25 23 22 21 21 22 21 21 26 33 43 49 48 48 52 62 77 97 96 95 92 96 96 90 78 68 57 58 54 52 51 54
27 23 24 28 27 31 34 38 45 48 49 49 62 76 82 83 83 86 87 84 79 75 72 67 63 57 52 51 54 50 46 40
29 24 27 26 28 37 56 65 62 75 93 92 82 71 63 63 62 61 61 59 60 62 56 52 57 56 60 57 51 48 51 52
20 19 24 35 55 72 83 82 85 93 83 70 61 54 51 49 47 46 45 57 57 44 42 42 61 73 65 65 64 65 64 58
31 42 60 70 80 78 71 68 65 63 58 56 53 48 47 48 61 63 64 48 44 50 62 68 90 83 68 64 61 60 54 47
66 71 71 68 66 65 62 59 55 49 43 43 46 52 60 57 50 45 46 60 69 74 77 71 78 82 75 68 66 54 47 36
59 58 60 69 64 53 46 46 49 49 51 51 50 45 44 51 58 61 66 68 68 69 66 72 68 63 52 47 44 40 34 30
47 46 64 59 47 42 45 50 50 44 47 46 56 67 73 77 75 82 87 80 69 68 68 55 47 44 30 20 16 18 18 18
52 68 56 54 50 43 43 44 51 52 60 77 75 84 82 82 86 92 84 79 66 64 53 36 22 18 15 14 13 13 13 14
54 58 56 59 47 44 51 64 78 88 93 96 100 100 96 88 82 74 72 60 48 32 25 20 15 12 11 10 9 8 9 9
48 46 46 44 54 61 68 73 88 100 100 100 99 95 93 81 68 61 50 40 27 20 14 12 10 9 8 7 6 6 7 7
57 66 67 73 71 83 93 88 99 100 100 94 98 100 90 85 60 49 31 21 16 13 10 8 7 6 6 6 6 6 7 7
80 78 79 90 93 93 98 100 100 100 100 100 95 89 83 60 45 21 17 14 11 8 6 6 6 7 7 7 7 7 7 8
82 86 95 98 100 100 100 100 100 100 100 87 78 67 47 32 22 16 14 11 8 6 6 7 8 8 8 8 8 8 8 8
92 100 100 100 100 100 100 100 100 82 68 68 53 31 18 15 13 12 9 7 6 7 8 8 8 7 7 8 8 8 8 8
100 100 100 100 100 100 99 85 67 68 60 47 21 12 12 12 10 7 7 7 8 8 8 8 8 7 6 5 5 6 6 6
100 98 98 95 94 78 75 71 62 54 46 15 12 13 11 8 7 7 7 7 8 8 7 6 5 4 4 4 4 4 4 4

GFSFLT1_250_rhum_006.txt.gz
RH
16 16 16 16 16 18 23 26 24 26 31 36 41 52 61 71 72 76 82 76 68 59 57 53 57 58 60 62 60 59 60 84
27 24 27 26 23 24 25 26 26 27 34 44 54 58 59 62 61 61 67 65 59 55 60 78 68 62 60 67 70 69 67 67
32 31 31 30 31 26 24 25 35 46 52 60 69 75 75 70 69 69 64 60 57 54 54 56 71 77 76 80 75 74 70 67
30 27 28 26 23 24 41 53 55 55 63 70 70 68 68 64 59 50 47 52 58 57 59 54 54 62 64 73 78 77 75 76
19 19 19 28 43 51 56 59 68 76 76 72 63 56 60 60 54 53 54 51 47 48 51 56 69 73 74 76 76 80 80 81
24 34 52 61 63 67 75 90 95 76 56 52 49 49 47 46 46 49 51 45 41 45 53 61 60 68 72 75 82 87 80 70
48 65 78 74 76 86 100 95 78 60 53 53 46 43 46 43 45 47 46 51 56 75 78 78 77 77 80 82 76 70 68 58
70 77 80 77 80 77 65 63 59 57 52 48 46 46 50 52 54 53 63 81 96 86 88 92 86 77 78 73 64 60 56 52
69 61 56 51 48 55 58 49 47 50 51 57 66 62 64 79 87 82 92 95 100 99 91 71 70 63 57 46 36 30 23 24
74 58 44 43 46 46 57 63 62 62 74 81 85 90 92 81 81 100 100 100 98 86 71 63 56 44 28 21 16 15 15 14
40 40 49 49 50 48 48 52 66 84 84 83 91 94 95 100 100 100 96 89 81 65 64 57 35 18 14 13 12 12 10 10
50 55 48 54 63 63 66 78 82 88 98 100 100 100 100 100 96 94 91 84 68 61 42 19 14 13 11 10 8 7 6 6
52 49 53 57 59 73 91 92 100 100 100 100 100 100 99 100 96 87 75 57 42 30 12 13 13 10 8 6 6 6 6 7
49 57 62 71 82 95 100 100 100 100 100 100 100 100 96 78 70 57 45 32 22 11 12 11 8 6 6 6 6 7 8 8
68 78 86 96 100 100 100 100 100 100 100 100 96 82 77 58 40 35 28 17 11 11 9 7 6 6 6 6 7 7 7 7
98 100 100 83 95 100 100 100 100 99 91 84 73 55 42 37 27 16 12 11 10 7 6 6 6 7 7 7 7 7 6 5
100 88 87 100 100 100 100 100 87 89 78 63 46 32 31 18 12 11 10 8 6 6 6 6 6 5 5 4 4 4 3 3
85 100 100 100 100 100 100 95 78 62 45 32 26 18 14 12 11 8 6 6 6 6 5 4 3 3 4 4 4 3 3 3
100 100 98 95 98 94 86 66 52 34 24 18 13 13 12 9 7 6 6 6 5 3 3 3 4 4 4 4 4 3 3 4

GFSFLT1_250_rhum_009.txt.gz
RH
20 18 17 20 22 22 23 24 25 25 23 23 31 54 58 61 68 88 96 100 96 81 63 50 44 43 47 54 59 61 67 70
20 19 19 25 26 26 27 25 24 23 30 49 54 54 56 71 91 89 71 58 47 42 43 44 47 52 58 58 58 64 66 71
22 25 26 22 20 19 20 31 49 47 45 44 49 55 61 66 63 52 46 44 42 42 42 45 48 51 49 44 43 46 52 56
24 21 24 22 24 38 55 52 56 55 49 53 54 59 65 57 52 49 47 41 40 46 48 50 51 48 48 49 51 60 62 75
21 26 23 27 49 61 61 65 63 58 50 47 53 58 46 47 46 47 47 54 67 72 75 73 65 67 78 81 92 96 95 95
28 27 23 55 74 73 71 66 55 48 48 51 48 49 46 43 46 61 73 80 89 89 76 65 77 96 94 89 95 93 85 79
24 23 35 70 76 77 74 62 47 46 46 45 45 47 57 66 75 83 80 79 83 88 100 100 100 99 92 92 82 78 65 70
25 35 57 73 73 67 55 47 50 48 47 55 62 69 78 92 90 94 100 100 100 100 100 100 89 91 95 87 67 61 49 52
40 57 68 66 57 44 47 51 47 48 56 65 72 84 95 98 100 100 100 100 100 100 84 89 94 90 73 66 52 45 37 30
61 60 52 46 42 46 44 48 57 62 69 90 88 75 85 100 100 96 100 100 98 74 72 84 80 61 52 39 34 26 19 14
46 48 45 43 44 46 52 65 76 90 100 91 79 95 100 100 100 100 100 85 76 72 69 56 45 34 31 20 14 12 10 10
36 40 41 42 47 58 72 88 99 100 82 72 87 100 100 100 86 81 78 74 63 55 51 33 24 16 13 11 10 9 8 7
47 48 48 51 61 76 94 100 89 88 95 100 100 100 100 89 82 70 61 54 42 28 19 16 12 12 10 8 7 6 6 6
53 56 59 68 91 100 99 83 91 100 98 96 100 90 75 54 54 49 35 26 17 14 13 12 11 8 6 6 5 6 6 6
59 66 86 98 100 96 93 100 93 94 100 97 90 57 48 47 45 30 19 16 14 13 12 8 6 6 6 6 5 5 4 3
74 94 100 100 100 100 97 98 100 86 75 55 46 46 43 34 29 17 14 13 12 9 6 6 6 6 6 4 3 3 3 3
100 100 100 99 98 92 85 80 56 42 48 47 46 36 26 20 16 14 12 10 7 6 6 6 5 4 4 4 3 3 3 3
92 88 80 75 71 60 59 53 51 51 38 32 25 19 16 14 12 10 7 6 6 5 5 4 3 3 4 4 4 4 4 3
92 78 68 59 56 68 81 58 35 31 24 20 17 16 12 10 7 5 6 5 4 3 3 3 4 4 5 4 4 4 4 4

GFSFLT1_250_rhum_012.txt.gz
RH
18 16 17 19 21 21 21 27 47 33 20 24 31 41 44 46 48 47 51 46 59 46 43 49 50 44 44 46 48 50 52 55
17 18 19 21 24 20 19 21 21 23 37 41 41 43 43 43 36 34 36 39 42 37 38 38 42 42 46 50 58 69 72 71
18 18 20 22 19 22 23 23 28 41 44 43 50 49 45 38 37 39 40 40 42 44 48 53 52 54 55 54 48 49 50 54
19 19 20 18 20 24 22 22 36 53 45 47 49 45 39 40 42 41 43 49 49 58 56 59 63 58 50 71 77 62 84 100
20 18 19 21 23 21 20 23 44 56 49 45 43 41 42 45 44 48 56 60 65 67 62 53 48 69 74 60 58 62 78 89
18 19 20 19 20 21 27 45 57 54 53 46 45 43 47 50 52 54 64 76 71 71 65 68 71 73 81 81 93 90 90 74
17 17 18 21 24 40 62 62 50 46 44 48 49 49 53 65 80 90 85 86 82 78 71 81 100 100 87 81 71 76 74 75
17 18 20 37 68 59 48 48 49 53 49 48 52 60 73 87 93 97 98 79 89 92 91 81 70 74 79 83 87 84 79 60
19 27 52 62 56 42 41 48 49 47 47 52 58 74 89 97 79 70 72 91 78 67 78 85 70 77 80 73 57 49 33 22
51 66 70 63 46 43 50 55 61 64 64 69 70 76 89 100 100 93 83 62 62 73 70 64 57 47 44 40 30 21 13 13
56 50 45 46 48 50 59 64 61 71 80 95 100 100 95 77 68 60 58 58 62 65 57 45 37 33 27 20 14 14 12 12
42 43 46 49 51 55 63 73 79 98 100 96 84 72 71 67 55 50 50 55 58 40 31 25 19 14 13 12 11 10 8 6
45 50 55 59 60 72 78 79 88 100 96 85 72 59 52 46 46 48 47 47 36 23 21 18 15 13 12 10 8 6 5 5
55 59 63 73 73 69 89 100 84 69 70 70 62 53 48 45 50 41 31 22 18 17 17 14 11 9 7 6 5 5 5 4
53 62 58 55 57 79 97 83 79 80 65 59 55 51 44 42 28 21 17 14 13 12 11 8 6 5 5 5 4 3 3 3
40 45 53 68 90 92 97 99 77 61 58 50 43 31 29 29 20 15 12 11 10 8 6 5 5 5 4 4 3 3 3 3
53 65 78 80 86 94 77 68 62 63 63 53 39 23 16 13 12 11 10 8 6 5 5 4 3 3 4 4 4 3 3 4
75 74 79 94 89 74 68 70 67 66 63 45 29 18 11 9 9 7 5 5 4 4 3 3 4 4 4 4 4 4 4 4
85 90 93 84 79 80 82 73 67 52 40 25 14 10 9 9 6 4 4 4 3 3 4 4 4 4 4 5 5 4 4 3

GFSFLT1_250_rhum_018.txt.gz
RH
45 42 43 40 30 53 52 83 82 42 31 21 21 22 21 22 22 20 19 29 41 48 50 50 47 45 43 42 41 40 41 38
28 33 30 30 34 60 24 16 15 15 16 18 20 21 23 22 18 26 49 48 42 38 36 34 32 31 33 37 37 36 35 37
30 30 26 22 19 16 16 16 17 18 18 21 24 22 19 18 25 47 51 42 38 35 33 30 29 31 32 32 30 30 33 35
24 26 21 17 16 18 19 19 18 18 19 19 18 18 23 38 52 53 46 44 42 38 32 28 29 30 30 33 35 39 46 50
19 18 16 16 17 16 17 16 16 17 17 17 27 43 55 55 49 43 42 38 32 30 36 37 35 36 39 42 50 57 60 60
20 16 16 16 16 17 16 16 17 20 30 45 52 49 48 48 44 40 41 48 52 58 54 56 51 51 51 56 60 63 60 58
22 23 21 21 25 20 24 34 45 51 55 53 53 63 56 49 47 53 58 61 58 51 51 57 66 70 69 69 63 54 47 41
38 28 22 38 42 53 56 55 56 57 59 54 45 40 40 42 50 56 51 56 70 76 78 71 63 63 60 51 46 36 27 21
30 31 45 48 57 58 50 46 48 53 54 51 50 51 59 57 56 69 76 70 62 56 55 61 59 50 46 38 29 18 13 10
32 31 28 33 39 43 49 55 51 52 52 51 49 48 56 63 59 52 53 61 65 62 53 48 45 43 36 23 12 10 8 7
33 33 40 51 50 47 43 46 44 43 45 51 56 53 55 53 55 60 65 60 58 54 51 44 34 18 12 8 8 7 6 5
35 37 39 37 38 39 38 41 49 52 48 42 51 65 65 64 66 62 58 57 50 40 35 25 15 8 8 7 6 5 4 4
51 53 51 48 51 55 61 57 49 50 64 76 67 61 62 61 60 62 51 44 38 32 29 14 8 7 8 6 4 4 3 3
51 53 57 62 62 59 54 55 62 73 70 65 67 67 66 64 65 50 39 34 29 22 10 7 7 6 5 4 4 3 3 3
52 56 58 60 56 55 56 55 66 72 72 76 65 67 71 67 40 38 31 27 17 9 8 7 5 4 4 4 3 3 3 3
40 44 49 53 53 55 61 70 69 73 76 69 78 68 53 33 34 28 26 15 8 7 6 5 4 4 4 4 3 3 4 4
54 58 60 58 62 67 66 64 68 81 76 74 58 49 39 38 26 23 13 8 7 6 4 4 4 4 4 4 4 4 4 4
57 58 60 62 64 68 64 80 87 83 70 62 56 50 38 26 21 12 8 7 6 4 4 4 4 4 4 4 5 4 5 4
63 66 60 69 72 84 95 86 80 73 72 66 53 37 27 20 12 8 7 6 5 4 4 4 4 5 5 4 4 4 4 4

GFSFLT1_250_rhum_021.txt.gz
RH
44 49 59 68 55 56 100 100 100 100 100 100 90 53 27 18 18 17 16 17 18 19 20 21 42 57 57 49 44 42 41 43
47 44 44 56 47 75 100 100 100 100 87 69 31 19 17 18 17 17 17 18 19 28 47 48 49 46 39 36 38 40 42 40
28 33 33 40 73 53 74 74 74 59 24 20 20 20 19 17 17 17 19 34 50 47 36 30 31 32 34 36 36 34 33 32
23 26 31 30 31 32 31 28 24 20 19 18 17 18 18 19 23 39 46 41 34 31 32 36 36 32 29 28 28 29 33 38
24 24 22 21 22 22 18 18 17 16 15 15 16 17 24 34 37 33 33 38 41 38 33 28 28 33 39 44 46 48 49 47
20 20 22 20 17 15 17 17 17 16 17 21 28 35 37 35 40 45 44 43 42 38 42 49 50 56 50 42 43 44 46 51
29 26 26 25 28 36 27 24 27 36 41 46 50 50 55 60 66 59 47 47 52 56 61 62 56 49 49 45 43 43 42 37
59 46 44 40 41 43 48 49 48 48 51 54 52 55 56 51 45 54 59 60 66 64 63 58 49 46 41 40 36 34 32 23
38 41 39 41 50 58 55 58 65 65 64 62 60 62 67 66 65 69 71 57 58 55 46 46 42 42 36 36 35 27 24 17
52 56 58 56 56 61 65 60 59 60 61 66 74 73 68 59 53 50 52 56 49 49 48 45 39 39 38 29 23 18 12 8
40 40 40 42 45 48 51 52 54 56 58 60 55 48 46 47 51 59 57 57 52 44 40 43 39 34 26 19 12 8 6 6
37 39 40 40 39 39 40 41 43 46 47 51 49 48 54 64 62 51 47 45 42 45 46 39 29 22 14 9 6 6 6 4
44 44 44 44 39 33 35 40 47 51 49 48 54 64 64 53 53 53 52 52 51 43 34 21 17 10 7 6 6 5 4 3
38 39 39 39 37 44 55 58 58 61 67 66 68 65 64 65 68 61 50 44 34 25 19 16 9 7 6 5 4 3 3 3
55 53 52 54 62 70 69 73 74 69 68 69 68 64 64 63 54 52 41 27 19 16 12 8 7 6 5 4 4 4 3 3
70 71 72 72 70 66 65 65 64 66 67 64 62 70 71 67 55 42 25 18 13 10 8 7 6 5 4 4 4 4 4 4
71 68 65 58 56 57 61 64 67 64 68 73 84 78 68 55 41 28 20 14 11 9 8 6 5 4 4 4 4 4 4 4
64 60 57 57 59 64 68 67 67 69 76 80 85 69 62 46 33 22 17 10 9 8 7 5 4 4 5 5 4 5 5 5
64 62 64 64 68 68 70 71 75 75 80 84 68 62 48 37 24 18 10 9 8 7 5 5 5 5 5 6 5 5 5 4

GFSFLT1_250_rhum_024.txt.gz
RH
94 86 82 62 46 45 53 82 100 100 100 100 100 100 100 100 100 98 67 23 19 18 18 17 17 18 24 39 50 50 45 39
72 55 48 47 44 40 87 100 100 100 100 100 100 100 100 100 88 56 20 19 18 17 17 20 26 38 46 50 50 46 42 40
42 33 26 29 59 80 85 82 77 85 96 96 86 74 43 33 32 20 22 20 22 27 36 46 47 44 40 35 33 36 38 37
22 22 25 28 32 42 37 36 34 29 28 29 27 23 22 22 25 26 31 44 53 55 51 47 44 39 33 32 32 33 33 32
17 17 18 18 18 19 21 22 25 31 28 23 24 26 28 29 37 48 52 49 44 41 40 36 30 30 33 33 32 34 45 51
24 24 24 28 32 33 38 45 43 35 34 43 42 41 43 44 44 39 35 37 38 40 39 36 36 38 39 50 64 64 57 50
40 38 34 34 35 36 37 36 32 31 31 30 31 35 37 39 40 41 42 45 44 43 48 47 57 75 71 62 55 48 42 39
41 43 42 42 41 38 37 35 37 36 37 40 41 41 42 43 45 48 51 54 58 64 74 74 66 60 54 48 43 37 34 31
47 42 41 39 38 38 42 44 45 45 44 42 39 38 40 48 54 61 72 81 78 68 62 60 55 48 45 40 31 27 23 20
39 43 43 46 43 37 38 41 42 43 41 42 50 59 68 79 87 94 84 68 61 63 55 52 48 41 34 25 21 17 14 10
34 36 37 36 41 46 46 47 52 55 54 54 60 68 73 80 78 65 55 48 49 50 44 40 36 28 22 18 12 10 8 6
33 37 50 63 63 61 56 52 52 54 57 61 67 68 63 56 49 50 56 60 50 43 36 33 27 20 15 11 9 7 6 5
40 46 49 51 57 54 54 53 48 50 55 57 54 50 50 48 55 63 61 54 49 43 35 25 19 14 11 9 7 6 6 5
51 54 54 54 52 47 48 48 50 53 52 48 47 54 54 61 70 66 64 60 45 36 25 18 14 10 8 7 6 5 4 4
63 62 63 63 60 61 59 58 56 51 47 52 59 59 67 76 79 77 61 58 43 31 20 14 10 9 7 6 5 4 4 4
71 72 75 71 68 67 63 59 52 54 58 63 64 78 82 86 85 88 71 52 38 27 15 11 10 8 6 5 5 4 4 4
70 78 62 55 58 58 61 60 62 63 76 76 79 95 90 94 87 82 59 36 23 16 11 10 8 7 6 5 5 4 4 5
76 74 63 62 59 63 61 70 82 79 83 86 96 94 100 90 79 60 37 20 16 11 10 8 7 6 5 5 4 4 5 5
89 78 71 63 59 64 75 89 87 86 94 98 98 100 96 85 67 36 20 16 12 10 9 7 6 6 5 5 5 5 5 5

GFSFLT1_250_rhum_027.txt.gz
RH
100 100 100 85 78 76 70 64 59 93 100 96 92 82 100 100 100 100 100 100 97 76 65 35 23 22 23 32 48 49 51 54
82 65 69 61 55 50 42 47 64 92 100 100 100 100 100 100 100 100 100 76 68 27 23 23 29 38 57 57 56 52 48 46
43 46 48 44 37 30 30 34 40 77 86 92 94 75 93 100 100 60 26 25 29 37 46 55 59 59 56 50 47 48 51 53
46 38 30 21 16 17 18 21 24 28 55 58 26 26 28 36 43 46 51 54 54 52 51 52 54 52 49 48 44 43 43 41
18 18 20 23 30 32 33 38 44 44 40 40 48 50 48 46 44 43 45 50 52 52 49 44 42 42 42 43 45 50 54 56
30 38 40 40 40 38 38 36 36 39 39 40 40 36 37 40 42 42 39 38 37 35 34 36 42 48 57 66 61 57 54 49
44 42 42 42 41 38 37 36 35 34 35 36 36 36 37 39 40 38 35 31 31 42 50 55 62 63 59 56 54 49 44 38
49 46 44 41 38 37 34 31 30 28 29 30 30 31 32 32 32 31 32 42 49 58 67 62 60 62 64 55 44 42 38 31
41 37 34 32 30 30 30 33 35 38 40 37 35 34 36 39 41 48 56 65 69 61 54 57 61 58 49 41 35 29 22 16
32 32 34 34 33 35 44 53 52 49 45 44 48 54 58 61 65 66 64 58 52 57 65 70 66 55 43 34 22 17 15 12
40 40 43 45 47 50 48 48 52 54 55 57 63 65 64 59 52 51 52 54 68 69 78 76 72 52 32 24 18 13 10 8
52 57 58 58 63 71 75 74 72 72 63 62 64 58 52 50 50 54 61 75 73 86 72 66 56 42 26 17 12 9 8 6
62 66 68 72 74 83 75 70 62 56 58 55 52 54 48 50 60 67 80 70 75 61 62 64 46 29 17 13 10 8 6 5
60 62 61 62 75 72 65 64 59 52 48 50 51 54 55 63 70 78 68 70 67 82 65 54 41 24 14 11 9 6 5 4
68 69 68 71 66 65 58 60 52 48 50 51 52 61 71 78 84 64 74 90 86 62 51 35 24 16 11 9 7 5 5 4
78 82 88 84 75 73 66 69 67 58 53 52 62 72 81 88 78 86 99 91 60 53 33 25 18 12 10 7 5 5 5 4
87 83 87 81 84 77 74 70 64 58 54 61 75 81 88 92 92 99 94 70 62 40 21 17 11 10 7 6 5 5 4 4
94 94 89 86 84 77 77 70 60 56 59 76 86 95 99 98 100 97 88 55 36 22 16 11 10 8 6 5 5 4 4 4
99 98 92 97 88 81 69 55 58 67 83 95 100 100 100 100 91 87 60 32 18 15 11 10 9 6 6 5 4 4 4 4

GFSFLT1_250_rhum_030.txt.gz
RH
100 100 100 100 90 88 86 91 80 74 69 100 100 100 100 100 100 100 100 100 100 100 100 100 100 100 96 76 42 45 45 44
100 94 77 76 77 73 72 68 60 51 40 69 97 100 100 100 100 100 100 100 96 94 100 91 54 43 45 46 46 52 55 52
74 70 65 53 46 49 44 30 25 20 22 42 63 66 86 100 100 100 100 100 98 45 49 47 49 50 50 47 41 42 48 57
67 45 35 37 31 21 19 18 21 25 28 29 31 34 41 77 78 57 39 42 43 42 46 52 51 47 44 41 48 58 56 53
35 29 23 20 27 34 38 40 41 41 42 40 38 38 39 40 41 41 43 44 46 43 39 37 36 38 44 51 49 52 53 57
19 27 35 38 39 40 41 42 42 45 48 47 45 46 50 53 51 46 36 31 31 32 35 40 45 46 49 55 55 57 65 70
38 40 43 44 43 41 37 35 33 34 33 35 34 33 33 32 34 36 34 33 37 44 50 54 57 58 54 58 75 77 72 63
46 47 43 38 36 35 35 33 31 30 30 31 33 36 38 38 36 35 36 43 47 53 57 60 54 54 69 70 61 57 52 40
40 37 38 37 35 32 34 37 41 44 50 56 58 58 53 46 42 45 47 50 59 60 55 54 70 66 54 52 52 47 36 27
39 36 38 38 41 44 49 55 61 72 79 83 84 77 66 58 53 51 53 56 55 59 60 70 60 59 62 60 53 40 28 21
43 37 38 54 65 67 70 71 70 69 78 86 77 71 64 52 48 52 50 55 55 57 62 68 75 72 70 58 43 28 17 14
40 35 42 49 57 70 78 71 72 72 72 74 71 61 51 50 47 47 50 57 62 65 78 80 63 53 48 40 30 17 14 11
38 41 41 47 62 83 83 90 81 79 84 77 63 55 52 47 47 53 60 66 70 83 84 62 36 31 27 21 17 14 11 10
41 40 47 57 73 91 89 91 84 80 83 68 59 52 48 51 55 67 81 82 82 92 74 58 39 36 25 17 14 12 10 8
40 49 52 63 85 93 96 91 92 84 76 67 60 56 66 68 73 87 84 80 92 86 72 44 32 26 19 14 11 10 8 5
50 54 67 76 89 84 80 83 78 77 80 75 66 70 78 78 82 87 80 82 87 74 51 29 22 17 14 11 9 8 6 5
51 58 70 81 86 88 86 83 83 94 87 80 78 77 75 87 87 81 84 80 72 61 39 24 17 14 12 9 9 7 5 5
60 63 61 72 88 90 92 86 100 92 80 76 74 75 79 89 87 92 88 61 44 42 32 18 14 11 9 9 7 6 5 5
66 67 64 75 91 96 95 96 92 80 78 76 83 82 91 92 93 88 57 45 34 27 23 14 12 9 9 8 6 5 5 6

GFSFLT1_250_rhum_033.txt.gz
RH
97 99 96 97 100 100 100 100 91 78 68 62 62 69 77 100 94 100 100 100 100 90 100 100 100 99 100 98 95 77 72 48
100 100 100 100 100 92 87 76 67 62 57 55 55 51 44 40 47 59 54 82 100 100 100 100 100 100 100 91 54 48 44 39
100 98 100 97 82 70 68 58 49 41 28 22 21 24 28 32 33 65 65 76 56 43 48 62 83 66 38 40 41 36 39 47
100 86 72 62 64 58 49 61 29 33 34 33 33 34 34 35 35 35 36 36 37 39 39 37 38 40 38 34 36 49 53 55
63 68 55 38 29 28 27 31 32 33 33 32 32 32 31 32 34 38 38 40 37 35 34 36 36 34 40 48 49 50 57 57
32 31 23 28 34 36 34 34 34 32 31 33 34 36 40 44 46 42 44 38 40 43 40 36 42 46 46 54 57 58 54 51
28 35 37 37 36 35 33 32 34 34 35 38 39 42 52 61 78 86 83 74 62 45 41 43 50 54 58 57 54 53 53 53
36 40 40 37 34 35 38 46 53 56 57 63 68 72 76 74 80 72 64 60 53 50 52 54 51 53 53 52 51 56 52 45
42 38 35 34 35 37 42 47 51 55 65 79 81 82 78 76 70 67 60 57 58 54 51 50 54 58 58 62 55 59 52 45
39 39 40 40 34 32 37 44 53 50 62 69 76 76 87 80 76 75 72 70 58 50 54 65 59 59 62 60 58 55 48 35
40 41 41 38 36 37 42 47 46 56 67 74 73 73 81 80 81 80 75 65 56 65 69 64 67 65 65 59 53 46 36 30
46 49 52 39 37 39 43 48 57 57 64 66 80 86 91 91 92 79 69 63 65 65 68 65 60 64 65 53 46 38 28 22
55 52 52 36 37 39 46 53 52 58 60 77 83 96 91 84 84 71 63 64 68 73 68 64 69 76 55 48 35 26 20 17
56 58 54 42 41 47 53 58 59 63 68 77 93 100 96 93 78 67 70 76 78 71 61 74 78 63 49 34 23 17 15 13
65 68 67 49 48 50 59 64 61 64 72 91 99 94 86 78 74 76 78 74 67 72 73 76 71 50 42 22 17 14 13 10
75 91 72 62 53 55 67 62 64 70 90 96 92 85 84 80 83 79 77 70 78 87 83 74 58 46 31 18 15 13 11 9
100 97 81 73 60 69 65 64 72 91 92 84 81 83 79 84 87 78 75 84 86 84 74 56 37 31 24 15 14 11 9 8
86 86 82 69 66 59 59 67 82 84 76 81 81 84 91 89 77 78 84 90 89 74 54 38 28 19 15 12 10 9 8 7
64 62 61 59 53 57 70 76 76 80 81 79 84 83 82 80 88 94 99 89 73 50 41 30 23 15 12 10 9 9 7 7

GFSFLT1_250_rhum_036.txt.gz
RH
100 100 100 100 100 66 63 70 63 50 66 87 97 97 84 66 53 49 48 34 26 40 49 45 57 77 87 96 88 86 65 42
100 89 73 78 100 100 100 87 100 100 100 100 86 63 51 49 38 26 24 32 39 42 42 42 45 36 36 38 33 29 28 29
86 100 100 100 99 100 100 98 80 84 87 64 58 52 32 31 34 33 32 30 28 26 26 29 32 34 34 33 32 32 34 39
100 100 100 100 100 100 98 88 75 53 52 46 32 29 28 26 26 28 30 33 36 38 41 45 45 46 52 55 49 44 44 49
100 100 100 100 96 74 61 50 36 31 30 28 26 24 27 29 33 42 45 46 46 47 55 66 68 63 52 48 48 48 50 53
67 58 57 53 54 37 32 28 34 56 25 27 34 37 44 42 44 53 54 64 69 69 75 77 74 75 58 52 50 51 54 59
39 37 33 29 28 31 32 70 31 32 39 38 34 32 33 41 44 54 58 67 66 63 66 63 58 49 49 48 49 52 52 49
24 29 39 37 34 30 28 29 31 33 34 32 33 37 43 45 49 57 65 82 84 80 77 67 62 56 51 50 52 55 55 56
39 38 40 34 32 31 33 34 33 38 39 37 37 40 42 49 56 63 78 84 71 69 67 64 57 57 64 65 64 59 51 50
40 40 37 34 35 37 36 38 39 42 37 37 35 41 48 53 60 71 86 82 77 74 66 64 66 69 65 58 57 58 51 54
39 44 40 40 41 47 49 46 42 40 39 43 36 44 55 56 68 77 90 84 79 71 64 72 80 78 70 66 58 57 64 57
52 52 55 52 51 53 54 55 43 40 44 43 40 52 57 62 74 91 88 85 82 75 77 82 85 76 63 62 66 70 55 42
65 64 57 61 65 65 61 60 53 49 53 44 53 63 60 74 89 81 80 81 75 74 81 79 72 68 72 80 73 52 42 31
50 54 62 63 63 62 62 70 74 65 65 69 62 58 74 87 74 74 76 69 70 85 88 80 72 72 86 77 51 42 37 28
56 57 60 67 66 68 70 70 82 78 72 61 57 73 82 72 72 73 69 73 84 85 84 78 79 86 74 47 34 31 24 20
70 68 62 56 59 56 56 60 64 62 58 56 67 73 67 74 80 73 73 82 80 77 77 88 82 64 56 44 37 30 17 14
70 84 78 69 58 54 55 54 57 53 56 60 71 64 70 76 77 82 79 70 73 86 81 78 66 47 39 31 26 20 14 12
68 77 80 69 54 51 59 51 48 53 60 69 68 72 80 89 88 78 69 79 74 73 69 56 46 49 53 33 25 16 11 9
73 69 65 65 69 58 52 46 52 61 70 70 78 84 89 91 83 76 76 68 77 66 56 58 54 54 35 26 14 11 12 10